Time,TemperatureF,DewpointF,PressureIn,WindDirection,WindDirectionDegrees,WindSpeedMPH,WindSpeedGustMPH,Humidity,HourlyPrecipIn,Conditions,Clouds,dailyrainin,SolarRadiationWatts/m^2,SoftwareType,DateUTC
2013-10-11 00:03:00,61.0,55.0,-100.00,SE,142,5.0,10.0,82,0.00,,,0.00,0.000000,,2013-10-11 05:03:00,
2013-10-11 00:43:00,59.0,55.0,-100.00,SE,134,5.0,9.0,87,0.00,,,0.00,0.000000,,2013-10-11 05:43:00,
2013-10-11 00:52:00,59.0,55.0,-100.00,SE,134,5.0,9.0,87,0.00,,,0.00,0.000000,,2013-10-11 05:52:00,
2013-10-11 01:02:00,59.0,55.0,-100.00,SE,134,5.0,9.0,87,0.00,,,0.00,0.000000,,2013-10-11 06:02:00,
2013-10-11 01:12:00,59.0,55.0,-100.00,SE,134,5.0,9.0,87,0.00,,,0.00,0.000000,,2013-10-11 06:12:00,
2013-10-11 01:43:00,58.0,56.0,-100.00,SE,141,5.0,9.0,92,0.00,,,0.00,0.000000,,2013-10-11 06:43:00,
2013-10-11 01:52:00,58.0,56.0,-100.00,SE,141,5.0,9.0,92,0.00,,,0.00,0.000000,,2013-10-11 06:52:00,
2013-10-11 02:02:00,58.0,56.0,-100.00,SE,141,5.0,9.0,92,0.00,,,0.00,0.000000,,2013-10-11 07:02:00,
2013-10-11 02:11:00,58.0,56.0,-100.00,SE,141,5.0,9.0,92,0.00,,,0.00,0.000000,,2013-10-11 07:11:00,
2013-10-11 02:42:00,58.0,56.0,-100.00,SE,145,4.0,8.0,93,0.00,,,0.00,0.000000,,2013-10-11 07:42:00,
2013-10-11 02:52:00,58.0,56.0,-100.00,SE,145,4.0,8.0,93,0.00,,,0.00,0.000000,,2013-10-11 07:52:00,
2013-10-11 03:02:00,58.0,56.0,-100.00,SE,145,4.0,8.0,93,0.00,,,0.00,0.000000,,2013-10-11 08:02:00,
2013-10-11 03:11:00,58.0,56.0,-100.00,SE,145,4.0,8.0,93,0.00,,,0.00,0.000000,,2013-10-11 08:11:00,
2013-10-11 03:42:00,57.0,56.0,-100.00,SSE,147,3.0,6.0,95,0.00,,,0.00,0.000000,,2013-10-11 08:42:00,
2013-10-11 03:52:00,57.0,56.0,-100.00,SSE,147,3.0,6.0,95,0.00,,,0.00,0.000000,,2013-10-11 08:52:00,
2013-10-11 04:02:00,57.0,56.0,-100.00,SSE,147,3.0,6.0,95,0.00,,,0.00,0.000000,,2013-10-11 09:02:00,
2013-10-11 04:12:00,57.0,56.0,-100.00,SSE,147,3.0,6.0,95,0.00,,,0.00,0.000000,,2013-10-11 09:12:00,
2013-10-11 04:43:00,57.0,56.0,-100.00,SSE,155,3.0,5.0,96,0.00,,,0.00,0.000000,,2013-10-11 09:43:00,
2013-10-11 04:54:00,57.0,56.0,-100.00,SSE,155,3.0,5.0,96,0.00,,,0.00,0.000000,,2013-10-11 09:54:00,
2013-10-11 05:03:00,57.0,56.0,-100.00,SSE,155,3.0,5.0,96,0.00,,,0.00,0.000000,,2013-10-11 10:03:00,
2013-10-11 05:12:00,57.0,56.0,-100.00,SSE,155,3.0,5.0,96,0.00,,,0.00,0.000000,,2013-10-11 10:12:00,
2013-10-11 05:43:00,57.0,56.0,-100.00,SSE,155,4.0,7.0,95,0.00,,,0.00,0.000000,,2013-10-11 10:43:00,
2013-10-11 05:53:00,57.0,56.0,-100.00,SSE,155,4.0,7.0,95,0.00,,,0.00,0.000000,,2013-10-11 10:53:00,
2013-10-11 06:02:00,57.0,56.0,-100.00,SSE,155,4.0,7.0,95,0.00,,,0.00,0.000000,,2013-10-11 11:02:00,
2013-10-11 06:12:00,57.0,56.0,-100.00,SSE,155,4.0,7.0,95,0.00,,,0.00,0.000000,,2013-10-11 11:12:00,
2013-10-11 06:42:00,56.0,55.0,-100.00,SSE,150,3.0,7.0,96,0.00,,,-99.99,0.000000,,2013-10-11 11:42:00,
2013-10-11 06:52:00,56.0,55.0,-100.00,SSE,150,3.0,7.0,96,0.00,,,-99.99,0.000000,,2013-10-11 11:52:00,
2013-10-11 07:02:00,56.0,55.0,-100.00,SSE,150,3.0,7.0,96,0.00,,,-99.99,0.000000,,2013-10-11 12:02:00,
2013-10-11 07:11:00,56.0,55.0,-100.00,SSE,150,3.0,7.0,96,0.00,,,-99.99,0.000000,,2013-10-11 12:11:00,
2013-10-11 07:42:00,56.0,55.0,-100.00,SSE,147,4.0,7.0,96,0.00,,,-99.99,0.000000,,2013-10-11 12:42:00,
2013-10-11 07:52:00,56.0,55.0,-100.00,SSE,147,4.0,7.0,96,0.00,,,-99.99,0.000000,,2013-10-11 12:52:00,
2013-10-11 08:02:00,56.0,55.0,-100.00,SSE,147,4.0,7.0,96,0.00,,,-99.99,0.000000,,2013-10-11 13:02:00,
2013-10-11 08:12:00,56.0,55.0,-100.00,SSE,147,4.0,7.0,96,0.00,,,-99.99,0.000000,,2013-10-11 13:12:00,
2013-10-11 08:43:00,58.0,57.0,-100.00,SSE,162,4.0,8.0,95,0.00,,,-99.99,53.000000,,2013-10-11 13:43:00,
2013-10-11 08:53:00,58.0,57.0,-100.00,SSE,162,4.0,8.0,95,0.00,,,-99.99,53.000000,,2013-10-11 13:53:00,
2013-10-11 09:02:00,58.0,57.0,-100.00,SSE,162,4.0,8.0,95,0.00,,,-99.99,53.000000,,2013-10-11 14:02:00,
2013-10-11 09:11:00,58.0,57.0,-100.00,SSE,162,4.0,8.0,95,0.00,,,-99.99,53.000000,,2013-10-11 14:11:00,
2013-10-11 09:42:00,63.0,58.0,-100.00,SSE,165,6.0,12.0,85,0.00,,,0.00,281.000000,,2013-10-11 14:42:00,
2013-10-11 09:52:00,63.0,58.0,-100.00,SSE,165,6.0,12.0,85,0.00,,,0.00,281.000000,,2013-10-11 14:52:00,
2013-10-11 10:02:00,63.0,58.0,-100.00,SSE,165,6.0,12.0,85,0.00,,,0.00,281.000000,,2013-10-11 15:02:00,
2013-10-11 10:11:00,63.0,58.0,-100.00,SSE,165,6.0,12.0,85,0.00,,,0.00,281.000000,,2013-10-11 15:11:00,
2013-10-11 10:13:00,68.0,60.0,-100.00,South,170,7.0,12.0,75,0.00,,,0.00,479.000000,,2013-10-11 15:13:00,
2013-10-11 10:44:00,68.0,60.0,-100.00,South,170,7.0,12.0,75,0.00,,,0.00,479.000000,,2013-10-11 15:44:00,
2013-10-11 10:54:00,68.0,60.0,-100.00,South,170,7.0,12.0,75,0.00,,,0.00,479.000000,,2013-10-11 15:54:00,
2013-10-11 11:04:00,68.0,60.0,-100.00,South,170,7.0,12.0,75,0.00,,,0.00,479.000000,,2013-10-11 16:04:00,
2013-10-11 11:43:00,73.0,61.0,-100.00,South,187,6.0,15.0,67,0.00,,,0.00,649.000000,,2013-10-11 16:43:00,
2013-10-11 11:53:00,73.0,61.0,-100.00,South,187,6.0,15.0,67,0.00,,,0.00,649.000000,,2013-10-11 16:53:00,
2013-10-11 12:03:00,73.0,61.0,-100.00,South,187,6.0,15.0,67,0.00,,,0.00,649.000000,,2013-10-11 17:03:00,
2013-10-11 12:12:00,73.0,61.0,-100.00,South,187,6.0,15.0,67,0.00,,,0.00,649.000000,,2013-10-11 17:12:00,
2013-10-11 12:43:00,76.0,62.0,-100.00,SSE,164,7.0,14.0,62,0.00,,,0.00,758.000000,,2013-10-11 17:43:00,
2013-10-11 12:53:00,76.0,62.0,-100.00,SSE,164,7.0,14.0,62,0.00,,,0.00,758.000000,,2013-10-11 17:53:00,
2013-10-11 13:02:00,76.0,62.0,-100.00,SSE,164,7.0,14.0,62,0.00,,,0.00,758.000000,,2013-10-11 18:02:00,
2013-10-11 13:12:00,76.0,62.0,-100.00,SSE,164,7.0,14.0,62,0.00,,,0.00,758.000000,,2013-10-11 18:12:00,
2013-10-11 13:43:00,78.0,62.0,-100.00,South,185,8.0,17.0,59,0.00,,,0.00,809.000000,,2013-10-11 18:43:00,
2013-10-11 13:53:00,78.0,62.0,-100.00,South,185,8.0,17.0,59,0.00,,,0.00,809.000000,,2013-10-11 18:53:00,
2013-10-11 14:02:00,78.0,62.0,-100.00,South,185,8.0,17.0,59,0.00,,,0.00,809.000000,,2013-10-11 19:02:00,
2013-10-11 14:11:00,78.0,62.0,-100.00,South,185,8.0,17.0,59,0.00,,,0.00,809.000000,,2013-10-11 19:11:00,
2013-10-11 14:43:00,79.0,61.0,-100.00,SSE,163,7.0,18.0,55,0.00,,,0.00,804.000000,,2013-10-11 19:43:00,
2013-10-11 14:52:00,79.0,61.0,-100.00,SSE,163,7.0,18.0,55,0.00,,,0.00,804.000000,,2013-10-11 19:52:00,
2013-10-11 15:02:00,79.0,61.0,-100.00,SSE,163,7.0,18.0,55,0.00,,,0.00,804.000000,,2013-10-11 20:02:00,
2013-10-11 15:12:00,79.0,61.0,-100.00,SSE,163,7.0,18.0,55,0.00,,,0.00,804.000000,,2013-10-11 20:12:00,
2013-10-11 15:43:00,80.0,62.0,-100.00,South,173,7.0,17.0,55,0.00,,,0.00,697.000000,,2013-10-11 20:43:00,
2013-10-11 15:53:00,80.0,62.0,-100.00,South,173,7.0,17.0,55,0.00,,,0.00,697.000000,,2013-10-11 20:53:00,
2013-10-11 16:02:00,80.0,62.0,-100.00,South,173,7.0,17.0,55,0.00,,,0.00,697.000000,,2013-10-11 21:02:00,
2013-10-11 16:12:00,80.0,62.0,-100.00,South,173,7.0,17.0,55,0.00,,,0.00,697.000000,,2013-10-11 21:12:00,
2013-10-11 16:13:00,77.0,60.0,-100.00,SSE,166,7.0,15.0,56,0.00,,,0.00,401.000000,,2013-10-11 21:13:00,
2013-10-11 16:43:00,77.0,60.0,-100.00,SSE,166,7.0,15.0,56,0.00,,,0.00,401.000000,,2013-10-11 21:43:00,
2013-10-11 16:55:00,77.0,60.0,-100.00,SSE,166,7.0,15.0,56,0.00,,,0.00,401.000000,,2013-10-11 21:55:00,
2013-10-11 17:04:00,77.0,60.0,-100.00,SSE,166,7.0,15.0,56,0.00,,,0.00,401.000000,,2013-10-11 22:04:00,
2013-10-11 17:43:00,76.0,61.0,-100.00,South,177,6.0,14.0,59,0.00,,,0.00,109.000000,,2013-10-11 22:43:00,
2013-10-11 17:54:00,76.0,61.0,-100.00,South,177,6.0,14.0,59,0.00,,,0.00,109.000000,,2013-10-11 22:54:00,
2013-10-11 18:03:00,76.0,61.0,-100.00,South,177,6.0,14.0,59,0.00,,,0.00,109.000000,,2013-10-11 23:03:00,
2013-10-11 18:12:00,76.0,61.0,-100.00,South,177,6.0,14.0,59,0.00,,,0.00,109.000000,,2013-10-11 23:12:00,
2013-10-11 18:42:00,74.0,60.0,-100.00,SSE,156,5.0,12.0,61,0.00,,,0.00,107.000000,,2013-10-11 23:42:00,
2013-10-11 18:53:00,74.0,60.0,-100.00,SSE,156,5.0,12.0,61,0.00,,,0.00,107.000000,,2013-10-11 23:53:00,
2013-10-11 19:02:00,74.0,60.0,-100.00,SSE,156,5.0,12.0,61,0.00,,,0.00,107.000000,,2013-10-12 00:02:00,
2013-10-11 19:12:00,74.0,60.0,-100.00,SSE,156,5.0,12.0,61,0.00,,,0.00,107.000000,,2013-10-12 00:12:00,
2013-10-11 19:42:00,71.0,60.0,-100.00,SSE,164,5.0,12.0,68,0.00,,,0.00,8.000000,,2013-10-12 00:42:00,
2013-10-11 19:53:00,71.0,60.0,-100.00,SSE,164,5.0,12.0,68,0.00,,,0.00,8.000000,,2013-10-12 00:53:00,
2013-10-11 20:02:00,71.0,60.0,-100.00,SSE,164,5.0,12.0,68,0.00,,,0.00,8.000000,,2013-10-12 01:02:00,
2013-10-11 20:11:00,71.0,60.0,-100.00,SSE,164,5.0,12.0,68,0.00,,,0.00,8.000000,,2013-10-12 01:11:00,
2013-10-11 20:42:00,70.0,60.0,-100.00,SSE,151,6.0,11.0,71,0.00,,,0.00,0.000000,,2013-10-12 01:42:00,
2013-10-11 20:52:00,70.0,60.0,-100.00,SSE,151,6.0,11.0,71,0.00,,,0.00,0.000000,,2013-10-12 01:52:00,
2013-10-11 21:02:00,70.0,60.0,-100.00,SSE,151,6.0,11.0,71,0.00,,,0.00,0.000000,,2013-10-12 02:02:00,
2013-10-11 21:12:00,70.0,60.0,-100.00,SSE,151,6.0,11.0,71,0.00,,,0.00,0.000000,,2013-10-12 02:12:00,
2013-10-11 21:42:00,69.0,60.0,-100.00,SSE,165,6.0,10.0,73,0.00,,,0.00,0.000000,,2013-10-12 02:42:00,
2013-10-11 21:52:00,69.0,60.0,-100.00,SSE,165,6.0,10.0,73,0.00,,,0.00,0.000000,,2013-10-12 02:52:00,
2013-10-11 22:02:00,69.0,60.0,-100.00,SSE,165,6.0,10.0,73,0.00,,,0.00,0.000000,,2013-10-12 03:02:00,
2013-10-11 22:12:00,69.0,60.0,-100.00,SSE,165,6.0,10.0,73,0.00,,,0.00,0.000000,,2013-10-12 03:12:00,
2013-10-11 22:13:00,67.0,59.0,-100.00,South,172,4.0,9.0,76,0.00,,,0.00,0.000000,,2013-10-12 03:13:00,
2013-10-11 22:44:00,67.0,59.0,-100.00,South,172,4.0,9.0,76,0.00,,,0.00,0.000000,,2013-10-12 03:44:00,
2013-10-11 22:54:00,67.0,59.0,-100.00,South,172,4.0,9.0,76,0.00,,,0.00,0.000000,,2013-10-12 03:54:00,
2013-10-11 23:04:00,67.0,59.0,-100.00,South,172,4.0,9.0,76,0.00,,,0.00,0.000000,,2013-10-12 04:04:00,
2013-10-11 23:13:00,68.0,60.0,-100.00,South,171,4.0,9.0,75,0.00,,,0.00,0.000000,,2013-10-12 04:13:00,
2013-10-11 23:44:00,68.0,60.0,-100.00,South,171,4.0,9.0,75,0.00,,,0.00,0.000000,,2013-10-12 04:44:00,
2013-10-11 23:54:00,68.0,60.0,-100.00,South,171,4.0,9.0,75,0.00,,,0.00,0.000000,,2013-10-12 04:54:00,